カタログに戻る

STARLINK-4387

運用中通信PO
NORAD 53490·PAYLOAD·🇺🇸 United States

打ち上げ Aug 12, 2022 から Vandenberg Space Force Base

Loading…

次のパス (今後24時間)

TLE

最新Source: CelesTrak SupGP

元期: Sep 15, 2026, 01:34 UTC

1 53490C 22099AB  26258.06576389  .00818940  00000+0  32217-2 0  2584
2 53490  97.6051  26.2617 0001804  87.1279 243.0636 15.86442869    10

AllMySatでSTARLINK-4387をリアルタイム追跡

Download on the App Store